Weather History for Rush City, MN

Change the Weather History Date:

Monday, October 15, 2012

  Actual Average (KCBG) Record (KCBG)
Temperature  
Mean Temperature 44 °F -  
Max Temperature 61 °F 54 °F 84 °F (1968)
Min Temperature 29 °F 35 °F 21 °F (1952)
Degree Days  
Heating Degree Days 20    
Moisture  
Dew Point 33 °F    
Average Humidity 62    
Maximum Humidity 96    
Minimum Humidity 32    
Precipitation  
Precipitation 0.00 in - - ()
Sea Level Pressure  
Sea Level Pressure 29.87 in    
Wind  
Wind Speed 4 mph (SSW)    
Max Wind Speed 12 mph    
Max Gust Speed -    
Visibility 10 miles    
Events      
Averages and records for this station are not official NWS values.
T = Trace of Precipitation, MM = Missing Value Source: NWS Daily Summary

Daily Weather History Graph

Daily Weather History Graph

Search for Another Location

Airport:

Trip Planner

Search our weather history database for the weather conditions in past years. The results will help you decide how hot, cold, wet, or windy it might be!

Date:

Astronomy

Oct. 15, 2012 Rise Set
Actual Time 7:29 AM CDT 6:25 PM CDT
Civil Twilight 6:59 AM CDT 6:55 PM CDT
Nautical Twilight 6:24 AM CDT 7:29 PM CDT
Astronomical Twilight 5:50 AM CDT 8:03 PM CDT
Moon 7:43 AM CDT (10/15) 6:20 PM CDT (10/15)
Length of Visible Light 11h 56m
Length of Day
10h 56m
New Moon, 0% of the Moon is Illuminated
Oct 15
New Moon
Oct 21
First Quarter
Oct 29
Full
Nov 6
Last Quarter
Nov 13
New

Hourly Weather History & Observations

Time (CDT) Temp. Windchill Dew Point Humidity Pressure Visibility Wind Dir Wind Speed Gust Speed Precip Events Conditions
12:14 AM 43.2 °F 40.5 °F 35.6 °F 75% 29.87 in 10.0 mi WNW 4.6 mph - N/A   Scattered Clouds
12:34 AM 42.4 °F 38.8 °F 35.8 °F 77% 29.87 in 10.0 mi WNW 5.8 mph - N/A   Scattered Clouds
12:54 AM 41.9 °F 38.2 °F 35.2 °F 77% 29.87 in 10.0 mi WNW 5.8 mph - N/A   Scattered Clouds
1:14 AM 42.1 °F 39.2 °F 35.2 °F 77% 29.87 in 10.0 mi NW 4.6 mph - N/A   Scattered Clouds
1:34 AM 42.3 °F 39.4 °F 34.5 °F 74% 29.88 in 10.0 mi NW 4.6 mph - N/A   Scattered Clouds
1:54 AM 40.6 °F 37.5 °F 32.9 °F 74% 29.88 in 10.0 mi WNW 4.6 mph - N/A   Scattered Clouds
2:14 AM 40.3 °F 37.1 °F 32.9 °F 75% 29.89 in 10.0 mi WNW 4.6 mph - N/A   Scattered Clouds
2:34 AM 37.2 °F 33.6 °F 31.8 °F 81% 29.89 in 10.0 mi West 4.6 mph - N/A   Scattered Clouds
2:54 AM 37.8 °F 34.2 °F 32.0 °F 80% 29.89 in 10.0 mi WNW 4.6 mph - N/A   Scattered Clouds
3:14 AM 36.5 °F 33.9 °F 31.6 °F 83% 29.89 in 10.0 mi WNW 3.5 mph - N/A   Scattered Clouds
3:34 AM 35.2 °F 31.2 °F 30.7 °F 84% 29.89 in 10.0 mi West 4.6 mph - N/A   Scattered Clouds
3:54 AM 34.7 °F - 31.1 °F 87% 29.88 in 10.0 mi Calm Calm - N/A   Clear
4:14 AM 33.1 °F 27.7 °F 30.0 °F 89% 29.89 in 10.0 mi West 5.8 mph - N/A   Scattered Clouds
4:34 AM 34.2 °F - 31.8 °F 91% 29.89 in 10.0 mi Calm Calm - N/A   Scattered Clouds
4:54 AM 33.8 °F - 31.6 °F 92% 29.89 in 10.0 mi Calm Calm - N/A   Scattered Clouds
5:14 AM 33.8 °F - 31.6 °F 92% 29.90 in 10.0 mi Calm Calm - N/A   Scattered Clouds
5:34 AM 32.0 °F 27.5 °F 29.7 °F 91% 29.91 in 10.0 mi West 4.6 mph - N/A   Clear
5:54 AM 33.1 °F - 31.3 °F 93% 29.91 in 10.0 mi Calm Calm - N/A   Clear
6:14 AM 33.3 °F - 31.6 °F 94% 29.91 in 10.0 mi Calm Calm - N/A   Scattered Clouds
6:34 AM 31.6 °F - 29.7 °F 92% 29.91 in 10.0 mi Calm Calm - N/A   Scattered Clouds
7:14 AM 30.0 °F 26.5 °F 28.8 °F 95% 29.91 in 10.0 mi West 3.5 mph - N/A   Clear
7:34 AM 30.4 °F - 29.1 °F 95% 29.91 in 10.0 mi Calm Calm - N/A   Clear
7:54 AM 29.3 °F 25.6 °F 28.0 °F 95% 29.92 in 10.0 mi West 3.5 mph - N/A   Clear
8:14 AM 31.6 °F 28.3 °F 30.6 °F 96% 29.92 in 10.0 mi West 3.5 mph - N/A   Clear
8:34 AM 34.2 °F 31.2 °F 32.9 °F 95% 29.93 in 10.0 mi West 3.5 mph - N/A   Clear
8:54 AM 37.2 °F - 35.4 °F 93% 29.94 in 10.0 mi Calm Calm - N/A   Clear
9:15 AM 39.9 °F - 36.0 °F 86% 29.94 in 10.0 mi Calm Calm - N/A   Clear
9:34 AM 41.7 °F - 35.4 °F 78% 29.94 in 10.0 mi Calm Calm - N/A   Scattered Clouds
9:54 AM 43.5 °F - 35.6 °F 74% 29.94 in 10.0 mi Calm Calm - N/A   Scattered Clouds
10:14 AM 45.0 °F - 35.6 °F 70% 29.94 in 10.0 mi Calm Calm - N/A   Scattered Clouds
10:34 AM 46.4 °F - 35.4 °F 66% 29.94 in 10.0 mi Calm Calm - N/A   Scattered Clouds
10:54 AM 49.1 °F - 35.6 °F 60% 29.94 in 10.0 mi Calm Calm - N/A   Scattered Clouds
11:14 AM 50.9 °F - 34.7 °F 54% 29.93 in 10.0 mi Calm Calm - N/A   Clear
11:34 AM 52.5 °F - 35.2 °F 52% 29.94 in 10.0 mi WSW 3.5 mph - N/A   Clear
11:54 AM 53.6 °F - 34.0 °F 47% 29.94 in 10.0 mi West 5.8 mph - N/A   Clear
12:14 PM 54.3 °F - 34.7 °F 48% 29.94 in 10.0 mi West 4.6 mph - N/A   Clear
12:34 PM 55.0 °F - 33.8 °F 45% 29.92 in 10.0 mi SW 5.8 mph - N/A   Clear
12:54 PM 54.9 °F - 33.6 °F 45% 29.92 in 10.0 mi Calm Calm - N/A   Clear
1:14 PM 55.4 °F - 33.4 °F 43% 29.91 in 10.0 mi SSW 5.8 mph - N/A   Clear
1:34 PM 56.1 °F - 32.9 °F 41% 29.90 in 10.0 mi Calm Calm - N/A   Clear
1:54 PM 56.7 °F - 31.6 °F 39% 29.90 in 10.0 mi Calm Calm - N/A   Clear
2:14 PM 57.6 °F - 30.4 °F 36% 29.89 in 10.0 mi South 5.8 mph - N/A   Clear
2:34 PM 58.8 °F - 29.8 °F 33% 29.88 in 10.0 mi SSW 3.5 mph - N/A   Clear
2:54 PM 59.4 °F - 29.7 °F 32% 29.88 in 10.0 mi South 5.8 mph - N/A   Clear
3:14 PM 59.9 °F - 30.6 °F 33% 29.86 in 10.0 mi South 4.6 mph - N/A   Clear
3:34 PM 59.5 °F - 30.6 °F 33% 29.86 in 10.0 mi SW 4.6 mph - N/A   Clear
3:54 PM 60.4 °F - 31.6 °F 34% 29.86 in 10.0 mi SSE 4.6 mph - N/A   Scattered Clouds
4:14 PM 59.9 °F - 32.0 °F 35% 29.85 in 10.0 mi SSW 4.6 mph - N/A   Scattered Clouds
4:34 PM 59.5 °F - 32.0 °F 35% 29.85 in 10.0 mi South 6.9 mph - N/A   Mostly Cloudy
4:54 PM 58.6 °F - 32.0 °F 37% 29.84 in 10.0 mi SSE 4.6 mph - N/A   Scattered Clouds
5:14 PM 58.3 °F - 32.2 °F 37% 29.84 in 10.0 mi SSE 6.9 mph - N/A   Mostly Cloudy
5:34 PM 58.1 °F - 32.9 °F 39% 29.83 in 10.0 mi SSE 4.6 mph - N/A   Overcast
5:54 PM 57.7 °F - 32.9 °F 39% 29.83 in 10.0 mi SE 6.9 mph - N/A   Overcast
6:14 PM 56.8 °F - 33.4 °F 41% 29.82 in 10.0 mi SE 6.9 mph - N/A   Overcast
6:34 PM 56.3 °F - 33.8 °F 43% 29.82 in 10.0 mi SE 5.8 mph - N/A   Overcast
6:54 PM 55.8 °F - 33.8 °F 44% 29.82 in 10.0 mi SSE 3.5 mph - N/A   Overcast
7:14 PM 55.4 °F - 33.8 °F 44% 29.82 in 10.0 mi SSE 4.6 mph - N/A   Mostly Cloudy
7:34 PM 54.7 °F - 34.3 °F 46% 29.82 in 10.0 mi SSE 4.6 mph - N/A   Mostly Cloudy
7:54 PM 54.9 °F - 34.3 °F 46% 29.81 in 10.0 mi SE 4.6 mph - N/A   Overcast
8:14 PM 54.5 °F - 34.5 °F 47% 29.81 in 10.0 mi SE 4.6 mph - N/A   Mostly Cloudy
8:34 PM 54.5 °F - 34.9 °F 48% 29.79 in 10.0 mi ESE 5.8 mph - N/A   Mostly Cloudy
8:54 PM 54.0 °F - 35.1 °F 49% 29.79 in 10.0 mi SE 5.8 mph - N/A   Mostly Cloudy
9:14 PM 54.5 °F - 35.2 °F 48% 29.79 in 10.0 mi SE 6.9 mph - N/A   Mostly Cloudy
9:34 PM 54.1 °F - 35.6 °F 50% 29.78 in 10.0 mi SSE 6.9 mph - N/A   Scattered Clouds
9:54 PM 54.5 °F - 35.6 °F 49% 29.78 in 10.0 mi SSE 8.1 mph - N/A   Scattered Clouds
10:14 PM 54.5 °F - 35.6 °F 49% 29.77 in 10.0 mi SSE 9.2 mph - N/A   Scattered Clouds
10:34 PM 54.5 °F - 35.6 °F 49% 29.76 in 10.0 mi SSE 8.1 mph - N/A   Scattered Clouds
10:54 PM 54.5 °F - 36.0 °F 50% 29.75 in 10.0 mi SSE 11.5 mph - N/A   Clear
11:14 PM 54.5 °F - 36.1 °F 50% 29.74 in 10.0 mi SSE 9.2 mph - N/A   Clear
11:34 PM 54.5 °F - 36.5 °F 51% 29.73 in 10.0 mi SSE 10.4 mph - N/A   Clear
11:54 PM 54.5 °F - 36.7 °F 51% 29.72 in 10.0 mi SSE 8.1 mph - N/A   Clear